Regional Weather Roundup
Issued by NWS

Home | Current Version | Previous Version | Graphics & Text | Print | Product List | Glossary On
Versions: 1 2 3 4 5 6 7 8 9 10 11 12 13 14 15 16 17 18 19 20 21 22 23 24 25 26 27 28 29 30 31 32 33 34 35 36 37 38 39 40 41 42 43 44 45 46 47 48 49 50
000
ASUS43 KIND 201609
RWRIN

WEATHER ROUNDUP FOR INDIANA
NATIONAL WEATHER SERVICE INDIANAPOLIS IN
1200 PM EDT WED AUG 20 2014

NOTE: "FAIR" INDICATES FEW OR NO CLOUDS BELOW 12,000 FEET WITH NO
SIGNIFICANT WEATHER AND/OR OBSTRUCTIONS TO VISIBILITY.

* - STATION DOES NOT REPORT WEATHER SUCH AS PRECIPITATION OR FOG.

+ - STATION NOT QUALITY CONTROLLED BY THE NATIONAL WEATHER SERVICE.
    USE DATA WITH CAUTION...ESPECIALLY DEWPOINT AND RELATIVE
    HUMIDITY OBSERVATIONS.

INZ001>003-010>013-019-020-201700-
NORTHWEST INDIANA

CITY           SKY/WX    TMP DP  RH WIND       PRES   REMARKS
GARY /AIRPORT/ MOSUNNY   79  64  61 SW5       29.89
KNOX *+        SUNNY     80  65  61 W8        29.90R
LA PORTE +     SUNNY     78  63  59 W7        29.91S
MICHIGAN CITY+ SUNNY     79  63  57 W5        29.90S
MONTICELLO +   SUNNY     78  68  70 W6        29.92S
RENSSELAER +   SUNNY     79  70  73 SW5       29.93R
VALPARAISO     SUNNY     80  65  59 W10       29.91R

$$

LMZ046-743>745-201700-
SOUTHERN LAKE MICHIGAN

STATION/POSITION TIME  TEMP WIND        PRES
                       AIR  DIR/SP/G
                 (UTC) (F)  (DEG/KT/KT) (MB)
BURNS HARBOR     1600   74  260/  1/  2   N/A
MICHIGAN CITY    1600   71  240/  5/  5   N/A

$$

INZ004-005-014>016-021>024-201700-
NORTH CENTRAL INDIANA

CITY           SKY/WX    TMP DP  RH WIND       PRES   REMARKS
GOSHEN         MOSUNNY   80  66  62 W8        29.91R
LOGANSPORT +   SUNNY     79  64  61 W7        29.94R
PERU/GRISSOM   MOSUNNY   80  72  77 SW7       29.93R
ROCHESTER +    SUNNY     82  64  54 W9        29.92S
SOUTH BEND     NOT AVBL
WARSAW +       SUNNY     79  64  61 W9        29.91R

$$

INZ006>009-017-018-025>027-201700-
NORTHEAST INDIANA

CITY           SKY/WX    TMP DP  RH WIND       PRES   REMARKS
ANGOLA *+      MOSUNNY   82  66  57 W8        29.91R
AUBURN +       SUNNY     79  66  65 CALM      29.91S
FORT WAYNE     MOSUNNY   79  67  66 SW9       29.93R
HUNTINGTON +   MOSUNNY   80  67  64 W10       29.93R

$$

INZ028-029-035-036-043>045-051>053-201700-
WEST CENTRAL INDIANA

CITY           SKY/WX    TMP DP  RH WIND       PRES   REMARKS
GREENCASTLE +  SUNNY     77  72  83 CALM      29.97R
LAFAYETTE      SUNNY     79  66  64 SW8       29.93R
TERRE HAUTE    MOSUNNY   81  73  76 SW5       29.95R

$$

INZ030>032-037>040-046>048-054>057-064-065-201700-
CENTRAL INDIANA

CITY           SKY/WX    TMP DP  RH WIND       PRES   REMARKS
ANDERSON       MOSUNNY   81  64  57 SW12      29.96R
CP ATTERBURY + SUNNY     81  72  74 SW7       29.97R
COLUMBUS       MOSUNNY   81  73  78 CALM      29.97R
FRANKFORT +    SUNNY     81  68  65 W7        29.95R
INDIANAPOLIS   PTSUNNY   80  69  69 W9        29.96R
-EAGLE CREEK   SUNNY     81  67  62 SW6       29.95R
KOKOMO *+      SUNNY     81  66  61 W9        29.93S
MARION +       MOSUNNY   79  66  62 W6        29.95R
MT COMFORT *+  SUNNY     79  70  73 SW5       29.96S
SHELBYVILLE    SUNNY     80  71  74 SW6       29.96R
ZIONSVILLE +   SUNNY     80  67  65 SW6       29.96R

$$

INZ033-034-041-042-049-050-058-059-201700-
EAST CENTRAL INDIANA

CITY           SKY/WX    TMP DP  RH WIND       PRES   REMARKS
MUNCIE         SUNNY     80  66  62 W10       29.95R

$$

INZ060-061-067>069-081>083-085>088-201700-
SOUTHWEST INDIANA

CITY           SKY/WX    TMP DP  RH WIND       PRES   REMARKS
EVANSVILLE     PTSUNNY   85  74  69 W6        29.96R
WASHINGTON +   MOSUNNY   84  73  69 NE3       29.93F

$$

INZ062-063-066-070>080-084-089>092-201700-
SOUTH CENTRAL AND SOUTHEAST INDIANA

CITY           SKY/WX    TMP DP  RH WIND       PRES   REMARKS
BEDFORD +      MOSUNNY   84  68  58 SW3       29.97R
BLOOMINGTON    SUNNY     81  72  74 SW5       29.97R
NORTH VERNON + MOSUNNY   81  73  78 CALM      29.97
SEYMOUR +      MOSUNNY   79  61  53 S5        29.96

$$



USA.gov is the U.S. government's official web portal to all federal, state and local government web resources and services.